Namest Nad Oslav, Czech Republic

6:16 PM CET on December 12, 2019 (GMT +0100)
Namest

Weather History for LKNA - August, 2019

Change the Weather History Date:

Wednesday, August 21, 2019

  Actual Average (WUND) Record (WUND)
Temperature  
Mean Temperature 60 °F -  
Max Temperature 65 °F - - (-1)
Min Temperature 56 °F - - (-1)
Degree Days  
Heating Degree Days 4    
Growing Degree Days 10 (Base 50)    
Moisture  
Dew Point 54 °F    
Average Humidity 79    
Maximum Humidity 98    
Minimum Humidity 50    
Precipitation  
Precipitation 0.12 in - - ()
Sea Level Pressure  
Sea Level Pressure 30.28 in    
Wind  
Wind Speed 14 mph ()    
Max Wind Speed 25 mph    
Max Gust Speed 30 mph    
Visibility 11.1 miles    
Events Rain , Thunderstorm    
Averages and records for this station are not official NWS values.
T = Trace of Precipitation, MM = Missing Value Source: Averaged Metar Reports

Daily Weather History Graph

Daily Weather History Graph

Search for Another Location

Airport or City:

Astronomy

Aug. 21, 2019 Rise Set
Actual Time 5:55 AM CEST 8:01 PM CEST
Civil Twilight 5:20 AM CEST 8:35 PM CEST
Nautical Twilight 4:37 AM CEST 9:18 PM CEST
Astronomical Twilight 3:49 AM CEST 10:05 PM CEST
Moon 10:40 PM CEST (8/21) 11:41 AM CEST (8/21)
Length of Visible Light 15h 14m
Length of Day
14h 05m
Waning Gibbous, 71% of the Moon is Illuminated
Aug 21
Waning Gibbous
Aug 23
Last Quarter
Aug 30
New
Sep 6
First Quarter
Sep 14
Full

Hourly Weather History & Observations

Time (CEST) Temp. Dew Point Humidity Pressure Visibility Wind Dir Wind Speed Gust Speed Precip Events Conditions
12:00 AM 66 °F 60 °F 76% 30.06 in 12 mi NW 11.2 mph - -   Mostly Cloudy
12:00 AM 66.2 °F 60.8 °F 83% 30.09 in 6.2 mi NW 10.4 mph - N/A   Mostly Cloudy
12:40 AM 66.2 °F 60.8 °F 83% 30.09 in 6.2 mi NW 13.8 mph - N/A Rain , Thunderstorm Light Thunderstorms and Rain
12:46 AM 64.4 °F 60.8 °F 88% 30.12 in 1.6 mi NW 18.4 mph 29.9 mph N/A Rain , Thunderstorm Thunderstorms and Rain
1:00 AM 63 °F 61 °F 89% 30.10 in 1 mi WNW 22.4 mph - - Rain , Thunderstorm Thunderstorms and Rain
2:00 AM 62 °F 62 °F 98% 30.12 in 12 mi WNW 17.9 mph - - Thunderstorm Light Thunderstorm
3:00 AM 60 °F 58 °F 90% 30.15 in 12 mi WNW 22.4 mph - -   Overcast
3:00 AM 60.8 °F 59.0 °F 94% 30.15 in 6.2 mi NW 20.7 mph - N/A   Overcast
4:00 AM 58 °F 55 °F 88% 30.21 in 12 mi WNW 24.6 mph - -   Overcast
4:00 AM 59.0 °F 57.2 °F 94% 30.21 in 6.2 mi WNW 20.7 mph - N/A   Overcast
5:00 AM 57 °F 54 °F 87% 30.22 in 19 mi WNW 24.6 mph - -   Overcast
5:00 AM 57.2 °F 55.4 °F 94% 30.21 in 6.2 mi NW 21.9 mph - N/A   Overcast
6:00 AM 57 °F 53 °F 81% 30.26 in 19 mi NW 22.4 mph - -   Mostly Cloudy
6:00 AM 57.2 °F 53.6 °F 88% 30.24 in 6.2 mi NW 23.0 mph - N/A   Mostly Cloudy
6:23 AM 57.2 °F 53.6 °F 88% 30.27 in 6.2 mi NW 19.6 mph - N/A   Unknown
6:34 AM 57.2 °F 53.6 °F 88% 30.27 in 6.2 mi NNW 18.4 mph - N/A   Mostly Cloudy
7:00 AM 57 °F 53 °F 81% 30.28 in 19 mi NW 15.7 mph - -   Mostly Cloudy
7:00 AM 57.2 °F 53.6 °F 88% 30.27 in 6.2 mi NNW 18.4 mph - N/A   Mostly Cloudy
7:04 AM 57.2 °F 53.6 °F 88% 30.27 in 6.2 mi NNW 16.1 mph - N/A   Mostly Cloudy
7:46 AM 57.2 °F 53.6 °F 88% 30.30 in 6.2 mi NNW 17.3 mph - N/A Rain Light Rain
8:00 AM 57 °F 53 °F 82% 30.32 in 19 mi NW 15.7 mph - - Rain Light Rain
8:00 AM 57.2 °F 53.6 °F 88% 30.33 in 6.2 mi NNW 16.1 mph - N/A Rain Light Rain
8:09 AM 57.2 °F 53.6 °F 88% 30.33 in 6.2 mi NNW 13.8 mph - N/A   Overcast
9:00 AM 58 °F 54 °F 80% 30.33 in 19 mi NW 13.4 mph - - Rain Light Rain
9:00 AM 59.0 °F 55.4 °F 88% 30.33 in 6.2 mi NW 12.7 mph - N/A   Mostly Cloudy
10:00 AM 59 °F 54 °F 77% 30.34 in 19 mi NW 13.4 mph - -   Mostly Cloudy
11:00 AM 59.0 °F 53.6 °F 82% 30.36 in 6.2 mi NW 15.0 mph - N/A   Overcast
12:00 PM 59.0 °F 55.4 °F 88% 30.36 in 6.2 mi NW 15.0 mph - N/A   Mostly Cloudy
1:00 PM 60 °F 53 °F 70% 30.36 in 19 mi NNW 11.2 mph - -   Overcast
1:00 PM 60.8 °F 53.6 °F 77% 30.36 in 6.2 mi NNW 12.7 mph - N/A   Overcast
2:00 PM 62 °F 53 °F 64% 30.34 in 19 mi North 11.2 mph - - Rain Light Rain Showers
2:00 PM 60.8 °F 53.6 °F 77% 30.36 in 6.2 mi NNW 11.5 mph - N/A   Mostly Cloudy
3:00 PM 63 °F 53 °F 60% 30.34 in 19 mi NNW 11.2 mph - -   Mostly Cloudy
4:00 PM 64.4 °F 51.8 °F 64% 30.36 in 6.2 mi NNW 8.1 mph - N/A   Mostly Cloudy
5:00 PM 65 °F 51 °F 50% 30.32 in 19 mi NNE 11.2 mph - -   Partly Cloudy
5:00 PM 66.2 °F 51.8 °F 60% 30.36 in 6.2 mi NNE 10.4 mph - N/A   Mostly Cloudy
6:00 PM 64 °F 52 °F 55% 30.33 in 19 mi North 8.9 mph - -   Partly Cloudy
6:00 PM 64.4 °F 51.8 °F 64% 30.36 in 6.2 mi North 9.2 mph - N/A   Mostly Cloudy
7:55 PM 62.6 °F 51.8 °F 68% 30.36 in - NNE 4.6 mph - N/A   Clear
8:00 PM 62 °F 51 °F 58% 30.34 in 19 mi North 4.5 mph - -   Partly Cloudy
9:00 PM 60 °F 49 °F 59% 30.35 in 19 mi NNW 4.5 mph - -   Clear
9:00 PM 60.8 °F 51.8 °F 72% 30.36 in - North 5.8 mph - N/A   Clear
10:00 PM 59 °F 50 °F 65% 30.36 in 19 mi NNW 6.7 mph - -  
10:00 PM 59.0 °F 51.8 °F 77% 30.36 in - NNW 8.1 mph - N/A   Clear
11:00 PM 56 °F 51 °F 78% 30.38 in 19 mi North 6.7 mph - -  
11:00 PM 57.2 °F 51.8 °F 82% 30.36 in - North 4.6 mph - N/A   Clear